Tracking 30744 objects as of 23-Jun-2025
HD Live streaming from Space Station
objects crossing your sky now

NOAA 17 DEB

Track NOAA 17 DEB now!
10-day predictions


NORAD ID: 48753
Int'l Code: 2002-032CP
Perigee: 714.2 km
Apogee: 746.2 km
Inclination: 98.7 °
Period: 99.3 minutes
Semi major axis: 7101 km
RCS: Unknown
Launch date: June 24, 2002
Source: United States (US)
Launch site: AIR FORCE WESTERN TEST RANGE (AFWTR)

Note: This is SATELLITE DEBRIS
Your satellite tracking list
Your tracking list is empty




NASA's NSSDC Master Catalog

Two Line Element Set (TLE):
1 48753U 02032CN  25172.63594004  .00005363  00000-0  13688-2 0  9997
2 48753  98.7255 142.7160 0022578 197.1516 162.8917 14.50796752221094
Source of the keplerian elements: AFSPC